Regional Weather Roundup
Issued by NWS Green Bay, WI

Home | Current Version | Previous Version | Text Only | Print | Product List | Glossary On
Versions: 1 2 3 4 5 6 7 8 9 10 11 12 13 14 15 16 17 18 19 20 21 22 23 24 25 26 27 28 29 30 31 32 33 34 35 36 37 38 39 40 41 42 43 44 45 46 47 48 49 50
242
ASUS43 KGRB 282300
RWRGRB

NORTH-CENTRAL AND NORTHEAST WISCONSIN REGIONAL WEATHER ROUNDUP
NATIONAL WEATHER SERVICE GREEN BAY WI
600 PM CDT THU JUL 28 2016

WIZ005-009-010>012-018-019-290000-
NORTH CENTRAL WISCONSIN

CITY           SKY/WX    TMP DP  RH WIND       PRES   REMARKS
IRONWOOD       PTSUNNY   66  52  59 NE9       30.06R
MANITOWISH WTR NOT AVBL
ARBOR VITAE    NOT AVBL
EAGLE RIVER    NOT AVBL
LAND O LAKES   NOT AVBL
RHINELANDER    PTSUNNY   73  54  51 E9        30.04S
PHILLIPS       NOT AVBL
ANTIGO         NOT AVBL
TOMAHAWK       NOT AVBL
MERRILL        NOT AVBL
$$

WIZ013-073-290000-
NORTHEAST WISCONSIN

CITY           SKY/WX    TMP DP  RH WIND       PRES   REMARKS
IRON MOUNTAIN  CLOUDY    72  51  47 NE8       30.03R
MARINETTE        N/A    N/A N/A N/A MISG        N/A
$$

WIZ017-030-035>037-045-290000-
CENTRAL WISCONSIN

CITY           SKY/WX    TMP DP  RH WIND       PRES   REMARKS
MEDFORD        NOT AVBL
WAUSAU         CLOUDY    66  61  84 CALM      30.00S
MOSINEE        CLOUDY    66  61  82 NE7       30.02R
MARSHFIELD     CLOUDY    64  59  83 E6        30.00S
WISC RAPIDS    CLOUDY    68  57  68 E9        30.00R
STEVENS POINT  NOT AVBL
WAUPACA        NOT AVBL
SHAWANO        NOT AVBL
CLINTONVILLE   NOT AVBL
WAUTOMA        CLOUDY    69  64  84 NE8       29.98R
$$

WIZ038-039-048-051-290000-
FOX VALLEY

CITY           SKY/WX    TMP DP  RH WIND       PRES   REMARKS
NWS GREEN BAY  CLOUDY    68  65  90 NE9       29.98S
APPLETON       CLOUDY    68  57  68 NE14G20   29.97S
OSHKOSH        CLOUDY    70  63  78 NE17      29.96S
FOND DU LAC    CLOUDY    73  62  68 NE14      29.96R
$$

WIZ022-050-052-290000-
EAST CENTRAL WISCONSIN

CITY           SKY/WX    TMP DP  RH WIND       PRES   REMARKS
EPHRAIM        NOT AVBL
WASHINGTON ISL NOT AVBL
STURGEON BAY   CLOUDY    69  60  73 NE7       30.00S
MANITOWOC      NOT AVBL
SHEBOYGAN      CLOUDY    68  59  73 NE15      29.96S
$$

LMZ563-521-522-541>543-290000-
LAKESHORE

STATION/POSITION TIME  TEMP    WIND        PRES    VSBY  WAVE
                       AIR SEA DIR/SP/G                  HT/PER
                 (UTC) (F)     (DEG/KT/KT) (MB)    (MI)  (FT/S)
SHEBOYGAN LKSHOR 2200   60     360/ 12/ 13 1014.7F
KEWAUNEE LKSHORE 2200           20/  5/  9 1014.9F
ALGOMA MARINA    2213           50/  6/  9   N/A
NORTHPORT PIER   2200   71      70/  5/  7 1015.2S
N MID LAKE BUOY  2150   70 71   30/  6/  8 1014.6F         0
SISTER BAY LKSHO 2221   75     120/  3/  7   N/A
CHAMBERS ISLAND  2200   72      30/  6/  8 1015.2F
MENOMINEE LKSHOR 2200           60/  6/  7 1014.5F
$$




USA.gov is the U.S. government's official web portal to all federal, state and local government web resources and services.